| time (UTC) | temp F | wind direction | speed knots | gust knots | rain 1hr in | rain 24hr in | rain mn in | humidity % | barometer mb |
| 20260504214551 | 70 | 192 | 3.5 | 9.6 | 0.00 | 0.00 | 0.00 | 43 | 1006.6 |
| 20260504214041 | 69 | 225 | 0.9 | 8.7 | 0.00 | 0.00 | 0.00 | 43 | 1006.7 |
| 20260504213538 | 69 | 196 | 1.7 | 18.2 | 0.00 | 0.00 | 0.00 | 40 | 1006.8 |
| 20260504213050 | 70 | 224 | 2.6 | 18.2 | 0.00 | 0.00 | 0.00 | 40 | 1006.9 |
| 20260504212542 | 71 | 162 | 2.6 | 9.6 | 0.00 | 0.00 | 0.00 | 39 | 1007.0 |
| 20260504212039 | 71 | 234 | 2.6 | 15.6 | 0.00 | 0.00 | 0.00 | 39 | 1007.1 |
| 20260504211634 | 72 | 195 | 1.7 | 15.6 | 0.00 | 0.00 | 0.00 | 40 | 1007.0 |
| 20260504211037 | 71 | 202 | 4.3 | 14.8 | 0.00 | 0.00 | 0.00 | 40 | 1007.0 |
| 20260504210538 | 70 | 282 | 3.5 | 13.0 | 0.00 | 0.00 | 0.00 | 41 | 1007.1 |
| 20260504210049 | 69 | 271 | 3.5 | 13.0 | 0.00 | 0.00 | 0.00 | 40 | 1007.1 |
| 20260504205538 | 71 | 165 | 2.6 | 13.0 | 0.00 | 0.00 | 0.00 | 39 | 1007.1 |
| 20260504205037 | 71 | 263 | 4.3 | 11.3 | 0.00 | 0.00 | 0.00 | 38 | 1007.1 |
| 20260504204614 | 72 | 274 | 2.6 | 11.3 | 0.00 | 0.00 | 0.00 | 39 | 1007.0 |
| 20260504204039 | 72 | 226 | 2.6 | 14.8 | 0.00 | 0.00 | 0.00 | 40 | 1007.0 |
| 20260504203539 | 72 | 217 | 1.7 | 15.6 | 0.00 | 0.00 | 0.00 | 42 | 1007.0 |
| 20260504203050 | 71 | 226 | 5.2 | 15.6 | 0.00 | 0.00 | 0.00 | 40 | 1007.0 |
| 20260504202540 | 71 | 272 | 1.7 | 12.2 | 0.00 | 0.00 | 0.00 | 39 | 1007.2 |
| 20260504202039 | 71 | 214 | 3.5 | 12.2 | 0.00 | 0.00 | 0.00 | 39 | 1007.2 |
| 20260504201547 | 71 | 273 | 3.5 | 9.6 | 0.00 | 0.00 | 0.00 | 40 | 1007.2 |
| 20260504201039 | 72 | 211 | 1.7 | 13.9 | 0.00 | 0.00 | 0.00 | 39 | 1007.3 |
| 20260504200538 | 71 | 273 | 5.2 | 13.9 | 0.00 | 0.00 | 0.00 | 39 | 1007.3 |
| 20260504200045 | 72 | 256 | 2.6 | 12.2 | 0.00 | 0.00 | 0.00 | 38 | 1007.4 |
| 20260504195538 | 71 | 164 | 1.7 | 9.6 | 0.00 | 0.00 | 0.00 | 40 | 1007.5 |
| 20260504195038 | 70 | 185 | 2.6 | 14.8 | 0.00 | 0.00 | 0.00 | 42 | 1007.4 |
| 20260504194550 | 69 | 263 | 6.1 | 14.8 | 0.00 | 0.00 | 0.00 | 41 | 1007.5 |
| 20260504194039 | 70 | 193 | 1.7 | 11.3 | 0.00 | 0.00 | 0.00 | 43 | 1007.5 |
| 20260504193539 | 70 | 257 | 4.3 | 13.9 | 0.00 | 0.00 | 0.00 | 37 | 1007.7 |
| 20260504193044 | 69 | 169 | 4.3 | 13.9 | 0.00 | 0.00 | 0.00 | 37 | 1007.6 |
| 20260504192538 | 70 | 254 | 4.3 | 12.2 | 0.00 | 0.00 | 0.00 | 42 | 1007.7 |
| 20260504192039 | 70 | 240 | 5.2 | 12.2 | 0.00 | 0.00 | 0.00 | 41 | 1007.7 |
| 20260504191607 | 70 | 165 | 4.3 | 12.2 | 0.00 | 0.00 | 0.00 | 38 | 1007.7 |
| 20260504191039 | 71 | 263 | 4.3 | 10.4 | 0.00 | 0.00 | 0.00 | 38 | 1007.8 |
| 20260504190539 | 71 | 215 | 3.5 | 10.4 | 0.00 | 0.00 | 0.00 | 42 | 1007.9 |
| 20260504190059 | 70 | 160 | 3.5 | 10.4 | 0.00 | 0.00 | 0.00 | 42 | 1007.8 |
| 20260504185538 | 71 | 254 | 1.7 | 10.4 | 0.00 | 0.00 | 0.00 | 40 | 1007.8 |
| 20260504185039 | 70 | 0 | 4.3 | 13.0 | 0.00 | 0.00 | 0.00 | 44 | 1007.9 |
| 20260504184553 | 70 | 237 | 6.1 | 13.0 | 0.00 | 0.00 | 0.00 | 44 | 1008.0 |
| 20260504184039 | 70 | 243 | 4.3 | 9.6 | 0.00 | 0.00 | 0.00 | 41 | 1008.0 |
| 20260504183537 | 70 | 288 | 3.5 | 13.0 | 0.00 | 0.00 | 0.00 | 45 | 1008.2 |
| 20260504183051 | 69 | 197 | 3.5 | 13.9 | 0.00 | 0.00 | 0.00 | 38 | 1008.2 |
| 20260504182540 | 69 | 195 | 6.1 | 13.9 | 0.00 | 0.00 | 0.00 | 41 | 1008.3 |
| 20260504182106 | 70 | 187 | 6.1 | 11.3 | 0.00 | 0.00 | 0.00 | 41 | 1008.2 |
| 20260504181559 | 71 | 252 | 1.7 | 11.3 | 0.00 | 0.00 | 0.00 | 45 | 1008.2 |
| 20260504181038 | 69 | 245 | 5.2 | 13.9 | 0.00 | 0.00 | 0.00 | 40 | 1008.2 |
| 20260504180539 | 69 | 0 | 4.3 | 13.9 | 0.00 | 0.00 | 0.00 | 45 | 1008.2 |
| 20260504180044 | 71 | 279 | 2.6 | 7.8 | 0.00 | 0.00 | 0.00 | 43 | 1008.4 |
| 20260504175539 | 71 | 290 | 1.7 | 13.9 | 0.00 | 0.00 | 0.00 | 42 | 1008.4 |
| 20260504175042 | 69 | 269 | 4.3 | 13.9 | 0.00 | 0.00 | 0.00 | 42 | 1008.5 |
| 20260504174548 | 67 | 215 | 5.2 | 12.2 | 0.00 | 0.00 | 0.00 | 43 | 1008.6 |
| 20260504174039 | 69 | 261 | 5.2 | 12.2 | 0.00 | 0.00 | 0.00 | 39 | 1008.6 |
| 20260504173538 | 68 | 266 | 3.5 | 12.2 | 0.00 | 0.00 | 0.00 | 46 | 1008.5 |
| 20260504173053 | 67 | 269 | 3.5 | 12.2 | 0.00 | 0.00 | 0.00 | 43 | 1008.6 |
| 20260504172538 | 69 | 260 | 4.3 | 10.4 | 0.00 | 0.00 | 0.00 | 40 | 1008.7 |
| 20260504172038 | 69 | 0 | 1.7 | 13.0 | 0.00 | 0.00 | 0.00 | 44 | 1008.7 |
| 20260504171548 | 68 | 277 | 4.3 | 24.3 | 0.00 | 0.00 | 0.00 | 44 | 1008.8 |
| 20260504171039 | 68 | 244 | 5.2 | 24.3 | 0.00 | 0.00 | 0.00 | 44 | 1008.9 |
| 20260504170539 | 67 | 146 | 4.3 | 10.4 | 0.00 | 0.00 | 0.00 | 48 | 1008.9 |
| 20260504151039 | 64 | 152 | 6.1 | 10.4 | 0.00 | 0.00 | 0.00 | 43 | 1010.1 |
| 20260504150608 | 64 | 273 | 3.5 | 11.3 | 0.00 | 0.00 | 0.00 | 46 | 1010.1 |
| 20260504141038 | 61 | 215 | 3.5 | 14.8 | 0.00 | 0.00 | 0.00 | 46 | 1010.8 |
| 20260504140539 | 62 | 241 | 2.6 | 14.8 | 0.00 | 0.00 | 0.00 | 50 | 1010.7 |
| 20260504130539 | 56 | 225 | 4.3 | 8.7 | 0.00 | 0.00 | 0.00 | 56 | 1011.3 |
| 20260504110536 | 36 | 0 | 0.0 | 0.0 | 0.00 | 0.00 | 0.00 | 94 | 1011.8 |
| 20260504100536 | 33 | 0 | 0.0 | 0.0 | 0.00 | 0.00 | 0.00 | 93 | 1011.6 |
| 20260504081547 | 34 | 0 | 0.0 | 0.0 | 0.00 | 0.00 | 0.00 | 92 | 1011.2 |
| 20260504081036 | 34 | 0 | 0.0 | 0.0 | 0.00 | 0.00 | 0.00 | 92 | 1011.3 |
| 20260504080538 | 34 | 0 | 0.0 | 0.0 | 0.00 | 0.00 | 0.00 | 92 | 1011.3 |
| 20260504050536 | 37 | 0 | 0.0 | 0.0 | 0.00 | 0.00 | 0.00 | 90 | 1010.8 |
| 20260504045544 | 37 | 0 | 0.0 | 0.0 | 0.00 | 0.00 | 0.00 | 90 | 1010.8 |
| 20260504045036 | 37 | 0 | 0.0 | 0.0 | 0.00 | 0.00 | 0.00 | 90 | 1010.9 |
| 20260504044555 | 37 | 0 | 0.0 | 0.0 | 0.00 | 0.00 | 0.00 | 90 | 1011.0 |
| 20260504044039 | 37 | 0 | 0.0 | 0.0 | 0.00 | 0.00 | 0.00 | 90 | 1011.1 |
| 20260504043541 | 37 | 0 | 0.0 | 0.0 | 0.00 | 0.00 | 0.00 | 90 | 1011.1 |
| 20260504043046 | 37 | 0 | 0.0 | 0.0 | 0.00 | 0.00 | 0.00 | 90 | 1011.1 |
| 20260504042538 | 37 | 0 | 0.0 | 0.0 | 0.00 | 0.00 | 0.00 | 90 | 1011.2 |
| 20260504042039 | 37 | 0 | 0.0 | 0.0 | 0.00 | 0.00 | 0.00 | 90 | 1011.2 |
| 20260504041546 | 36 | 0 | 0.0 | 0.0 | 0.00 | 0.00 | 0.00 | 90 | 1011.1 |
| 20260504041038 | 36 | 0 | 0.0 | 0.0 | 0.00 | 0.00 | 0.00 | 89 | 1011.1 |
| 20260504040538 | 36 | 0 | 0.0 | 0.0 | 0.00 | 0.00 | 0.00 | 89 | 1011.0 |
| 20260504040111 | 36 | 0 | 0.0 | 0.0 | 0.00 | 0.00 | 0.00 | 88 | 1011.1 |
| 20260504035540 | 36 | 0 | 0.0 | 0.0 | 0.00 | 0.00 | 0.00 | 88 | 1011.0 |
| 20260504035038 | 36 | 0 | 0.0 | 0.0 | 0.00 | 0.00 | 0.00 | 87 | 1011.0 |
| 20260504034544 | 36 | 0 | 0.0 | 0.0 | 0.00 | 0.00 | 0.00 | 87 | 1011.0 |
| 20260504034039 | 36 | 0 | 0.0 | 0.0 | 0.00 | 0.00 | 0.00 | 86 | 1011.0 |
| 20260504033541 | 36 | 0 | 0.0 | 0.0 | 0.00 | 0.00 | 0.00 | 87 | 1010.9 |
| 20260504033048 | 37 | 0 | 0.0 | 0.0 | 0.00 | 0.00 | 0.00 | 86 | 1010.9 |
| 20260504032541 | 37 | 0 | 0.0 | 0.0 | 0.00 | 0.00 | 0.00 | 85 | 1011.0 |
| 20260504032035 | 37 | 0 | 0.0 | 0.0 | 0.00 | 0.00 | 0.00 | 85 | 1011.0 |
| 20260504031555 | 37 | 0 | 0.0 | 0.0 | 0.00 | 0.00 | 0.00 | 85 | 1011.0 |
| 20260504031036 | 38 | 0 | 0.0 | 0.0 | 0.00 | 0.00 | 0.00 | 85 | 1010.8 |
| 20260504030536 | 38 | 0 | 0.0 | 0.0 | 0.00 | 0.00 | 0.00 | 85 | 1010.8 |
| 20260504030050 | 38 | 0 | 0.0 | 0.0 | 0.00 | 0.00 | 0.00 | 85 | 1010.7 |
| 20260504025537 | 38 | 0 | 0.0 | 0.0 | 0.00 | 0.00 | 0.00 | 84 | 1010.6 |
| 20260504025036 | 38 | 0 | 0.0 | 0.0 | 0.00 | 0.00 | 0.00 | 84 | 1010.6 |
| 20260504024546 | 39 | 0 | 0.0 | 0.0 | 0.00 | 0.00 | 0.00 | 83 | 1010.7 |
| 20260504024038 | 39 | 0 | 0.0 | 0.9 | 0.00 | 0.00 | 0.00 | 82 | 1010.7 |
| 20260504023538 | 39 | 0 | 0.0 | 0.9 | 0.00 | 0.00 | 0.00 | 81 | 1010.7 |
| 20260504023050 | 40 | 0 | 0.0 | 0.0 | 0.00 | 0.00 | 0.00 | 81 | 1010.7 |
| 20260504022539 | 40 | 0 | 0.0 | 0.0 | 0.00 | 0.00 | 0.00 | 81 | 1010.8 |
| 20260504022038 | 40 | 0 | 0.0 | 0.0 | 0.00 | 0.00 | 0.00 | 80 | 1010.7 |
| 20260504021545 | 40 | 0 | 0.0 | 0.0 | 0.00 | 0.00 | 0.00 | 80 | 1010.7 |
| 20260504021039 | 41 | 0 | 0.0 | 0.9 | 0.00 | 0.00 | 0.00 | 80 | 1010.7 |
| 20260504020539 | 41 | 0 | 0.0 | 0.9 | 0.00 | 0.00 | 0.00 | 79 | 1010.7 |
| 20260504020055 | 41 | 0 | 0.0 | 0.0 | 0.00 | 0.00 | 0.00 | 79 | 1010.7 |
| 20260504015538 | 42 | 0 | 0.0 | 0.0 | 0.00 | 0.00 | 0.00 | 79 | 1010.7 |
| 20260504015036 | 42 | 0 | 0.0 | 0.9 | 0.00 | 0.00 | 0.00 | 78 | 1010.7 |
| 20260504014542 | 42 | 0 | 0.0 | 1.7 | 0.00 | 0.00 | 0.00 | 77 | 1010.6 |
| 20260504014035 | 43 | 0 | 0.0 | 1.7 | 0.00 | 0.00 | 0.00 | 77 | 1010.6 |
| 20260504013538 | 43 | 0 | 0.0 | 1.7 | 0.00 | 0.00 | 0.00 | 76 | 1010.5 |
| 20260504013046 | 44 | 0 | 0.0 | 0.0 | 0.00 | 0.00 | 0.00 | 75 | 1010.5 |
| 20260504012536 | 44 | 0 | 0.0 | 0.0 | 0.00 | 0.00 | 0.00 | 74 | 1010.5 |
| 20260504012038 | 44 | 0 | 0.0 | 0.0 | 0.00 | 0.00 | 0.00 | 73 | 1010.5 |
| 20260504011549 | 44 | 0 | 0.0 | 0.0 | 0.00 | 0.00 | 0.00 | 72 | 1010.4 |
| 20260504011038 | 45 | 0 | 0.0 | 0.0 | 0.00 | 0.00 | 0.00 | 73 | 1010.4 |
| 20260504010535 | 45 | 0 | 0.0 | 0.9 | 0.00 | 0.00 | 0.00 | 72 | 1010.4 |
| 20260504010050 | 45 | 0 | 0.0 | 0.9 | 0.00 | 0.00 | 0.00 | 72 | 1010.2 |
| 20260504005538 | 45 | 0 | 0.0 | 0.9 | 0.00 | 0.00 | 0.00 | 71 | 1010.3 |
| 20260504005042 | 46 | 0 | 0.0 | 0.9 | 0.00 | 0.00 | 0.00 | 69 | 1010.2 |
| 20260504004545 | 46 | 0 | 0.0 | 0.9 | 0.00 | 0.00 | 0.00 | 69 | 1010.1 |
| 20260504004040 | 47 | 0 | 0.0 | 0.0 | 0.00 | 0.00 | 0.00 | 68 | 1010.1 |
| 20260504003541 | 47 | 0 | 0.0 | 0.0 | 0.00 | 0.00 | 0.00 | 67 | 1010.0 |
| 20260504003044 | 48 | 0 | 0.0 | 0.0 | 0.00 | 0.00 | 0.00 | 64 | 1010.0 |
| 20260504002536 | 49 | 0 | 0.0 | 0.0 | 0.00 | 0.00 | 0.00 | 64 | 1009.9 |
| 20260504002037 | 49 | 0 | 0.0 | 0.0 | 0.00 | 0.00 | 0.00 | 60 | 1009.8 |
| 20260504001553 | 50 | 0 | 0.0 | 0.0 | 0.00 | 0.00 | 0.00 | 58 | 1009.8 |
| 20260504001036 | 50 | 0 | 0.0 | 0.9 | 0.00 | 0.00 | 0.00 | 62 | 1009.7 |
| 20260504000535 | 51 | 0 | 0.0 | 2.6 | 0.00 | 0.00 | 0.00 | 59 | 1009.6 |
| 20260504000050 | 51 | 0 | 0.0 | 2.6 | 0.00 | 0.00 | 0.00 | 56 | 1009.6 |
| 20260503235539 | 51 | 0 | 0.0 | 2.6 | 0.00 | 0.00 | 0.00 | 49 | 1009.5 |
| 20260503235038 | 52 | 0 | 0.0 | 1.7 | 0.00 | 0.00 | 0.00 | 51 | 1009.4 |
| 20260503234612 | 52 | 0 | 0.0 | 3.5 | 0.00 | 0.00 | 0.00 | 52 | 1009.3 |
| 20260503234041 | 52 | 0 | 0.0 | 3.5 | 0.00 | 0.00 | 0.00 | 55 | 1009.3 |
| 20260503233541 | 52 | 0 | 0.9 | 3.5 | 0.00 | 0.00 | 0.00 | 49 | 1009.3 |
| 20260503233049 | 52 | 0 | 0.0 | 0.0 | 0.00 | 0.00 | 0.00 | 54 | 1009.3 |
| 20260503232535 | 53 | 0 | 0.0 | 0.9 | 0.00 | 0.00 | 0.00 | 48 | 1009.3 |
| 20260503232039 | 53 | 0 | 0.0 | 0.9 | 0.00 | 0.00 | 0.00 | 52 | 1009.2 |
| 20260503231552 | 53 | 0 | 0.0 | 0.0 | 0.00 | 0.00 | 0.00 | 54 | 1009.1 |
| 20260503231038 | 54 | 0 | 0.0 | 0.9 | 0.00 | 0.00 | 0.00 | 50 | 1009.1 |
| 20260503230542 | 54 | 0 | 0.0 | 1.7 | 0.00 | 0.00 | 0.00 | 47 | 1009.0 |
| 20260503230051 | 54 | 0 | 0.0 | 1.7 | 0.00 | 0.00 | 0.00 | 50 | 1009.0 |
| 20260503225539 | 54 | 0 | 0.0 | 0.9 | 0.00 | 0.00 | 0.00 | 49 | 1008.9 |
| 20260503225036 | 54 | 0 | 0.0 | 0.9 | 0.00 | 0.00 | 0.00 | 47 | 1008.9 |
| 20260503224548 | 54 | 0 | 0.0 | 0.9 | 0.00 | 0.00 | 0.00 | 45 | 1008.9 |
| 20260503224040 | 54 | 0 | 0.0 | 1.7 | 0.00 | 0.00 | 0.00 | 45 | 1008.9 |
| 20260503223539 | 55 | 0 | 0.0 | 2.6 | 0.00 | 0.00 | 0.00 | 42 | 1008.8 |
| 20260503223051 | 55 | 164 | 0.0 | 5.2 | 0.00 | 0.00 | 0.00 | 46 | 1008.8 |
| 20260503222543 | 57 | 53 | 0.9 | 7.0 | 0.00 | 0.00 | 0.00 | 38 | 1008.7 |
| 20260503222035 | 58 | 0 | 2.6 | 7.0 | 0.00 | 0.00 | 0.00 | 35 | 1008.7 |
| 20260503221557 | 58 | 53 | 0.9 | 5.2 | 0.00 | 0.00 | 0.00 | 35 | 1008.7 |
| 20260503221036 | 58 | 292 | 1.7 | 7.8 | 0.00 | 0.00 | 0.00 | 38 | 1008.7 |
| 20260503220539 | 58 | 0 | 3.5 | 7.8 | 0.00 | 0.00 | 0.00 | 34 | 1008.7 |
| 20260503220057 | 58 | 273 | 4.3 | 7.8 | 0.00 | 0.00 | 0.00 | 35 | 1008.8 |
| 20260503215539 | 59 | 279 | 1.7 | 4.3 | 0.00 | 0.00 | 0.00 | 35 | 1008.8 |
| 20260503215035 | 59 | 297 | 0.0 | 3.5 | 0.00 | 0.00 | 0.00 | 37 | 1008.7 |